HVDC transfer

From www.emi.ea.govt.nz provided by the Electricity Authority (New Zealand)
Run at: 20240505132805

Parameters
Date range,25 Apr 2020 - 22 May 2020
Time scale,Trading period
Show,Average flow (MW)

Period start,Period end,Trading period,Direction,Energy transfer (GWh),Peak flow (MW),Average flow (MW)
25/04/2020 00:00:00,25/04/2020 00:30:00,1,Southward at Benmore,-0.001,-2,-2
25/04/2020 00:30:00,25/04/2020 01:00:00,2,Southward at Benmore,-0.019,-38,-38
25/04/2020 01:00:00,25/04/2020 01:30:00,3,Southward at Benmore,-0.024,-49,-49
25/04/2020 01:30:00,25/04/2020 02:00:00,4,Southward at Benmore,-0.047,-95,-95
25/04/2020 02:00:00,25/04/2020 02:30:00,5,Southward at Benmore,-0.058,-117,-117
25/04/2020 02:30:00,25/04/2020 03:00:00,6,Southward at Benmore,-0.078,-157,-157
25/04/2020 03:00:00,25/04/2020 03:30:00,7,Southward at Benmore,-0.068,-136,-136
25/04/2020 03:30:00,25/04/2020 04:00:00,8,Southward at Benmore,-0.073,-146,-146
25/04/2020 04:00:00,25/04/2020 04:30:00,9,Southward at Benmore,-0.076,-153,-153
25/04/2020 04:30:00,25/04/2020 05:00:00,10,Southward at Benmore,-0.067,-134,-134
25/04/2020 05:00:00,25/04/2020 05:30:00,11,Southward at Benmore,-0.035,-70,-70
25/04/2020 05:30:00,25/04/2020 06:00:00,12,Southward at Benmore,-0.018,-37,-37
25/04/2020 06:00:00,25/04/2020 06:30:00,13,Southward at Benmore,-0.006,-12,-12
25/04/2020 06:30:00,25/04/2020 07:00:00,14,Northward at Haywards,0.050,100,100
25/04/2020 07:00:00,25/04/2020 07:30:00,15,Northward at Haywards,0.107,213,213
25/04/2020 07:30:00,25/04/2020 08:00:00,16,Northward at Haywards,0.127,253,253
25/04/2020 08:00:00,25/04/2020 08:30:00,17,Northward at Haywards,0.153,305,305
25/04/2020 08:30:00,25/04/2020 09:00:00,18,Northward at Haywards,0.164,327,327
25/04/2020 09:00:00,25/04/2020 09:30:00,19,Northward at Haywards,0.175,349,349
25/04/2020 09:30:00,25/04/2020 10:00:00,20,Northward at Haywards,0.170,339,339
25/04/2020 10:00:00,25/04/2020 10:30:00,21,Northward at Haywards,0.202,404,404
25/04/2020 10:30:00,25/04/2020 11:00:00,22,Northward at Haywards,0.205,410,410
25/04/2020 11:00:00,25/04/2020 11:30:00,23,Northward at Haywards,0.193,385,385
25/04/2020 11:30:00,25/04/2020 12:00:00,24,Northward at Haywards,0.192,384,384
25/04/2020 12:00:00,25/04/2020 12:30:00,25,Northward at Haywards,0.172,343,343
25/04/2020 12:30:00,25/04/2020 13:00:00,26,Northward at Haywards,0.161,322,322
25/04/2020 13:00:00,25/04/2020 13:30:00,27,Northward at Haywards,0.165,329,329
25/04/2020 13:30:00,25/04/2020 14:00:00,28,Northward at Haywards,0.160,320,320
25/04/2020 14:00:00,25/04/2020 14:30:00,29,Northward at Haywards,0.174,347,347
25/04/2020 14:30:00,25/04/2020 15:00:00,30,Northward at Haywards,0.175,349,349
25/04/2020 15:00:00,25/04/2020 15:30:00,31,Northward at Haywards,0.190,380,380
25/04/2020 15:30:00,25/04/2020 16:00:00,32,Northward at Haywards,0.202,404,404
25/04/2020 16:00:00,25/04/2020 16:30:00,33,Northward at Haywards,0.191,381,381
25/04/2020 16:30:00,25/04/2020 17:00:00,34,Northward at Haywards,0.208,415,415
25/04/2020 17:00:00,25/04/2020 17:30:00,35,Northward at Haywards,0.280,560,560
25/04/2020 17:30:00,25/04/2020 18:00:00,36,Northward at Haywards,0.343,686,686
25/04/2020 18:00:00,25/04/2020 18:30:00,37,Northward at Haywards,0.345,690,690
25/04/2020 18:30:00,25/04/2020 19:00:00,38,Northward at Haywards,0.348,696,696
25/04/2020 19:00:00,25/04/2020 19:30:00,39,Northward at Haywards,0.327,654,654
25/04/2020 19:30:00,25/04/2020 20:00:00,40,Northward at Haywards,0.285,569,569
25/04/2020 20:00:00,25/04/2020 20:30:00,41,Northward at Haywards,0.254,508,508
25/04/2020 20:30:00,25/04/2020 21:00:00,42,Northward at Haywards,0.235,469,469
25/04/2020 21:00:00,25/04/2020 21:30:00,43,Northward at Haywards,0.263,525,525
25/04/2020 21:30:00,25/04/2020 22:00:00,44,Northward at Haywards,0.247,493,493
25/04/2020 22:00:00,25/04/2020 22:30:00,45,Northward at Haywards,0.212,423,423
25/04/2020 22:30:00,25/04/2020 23:00:00,46,Northward at Haywards,0.192,383,383
25/04/2020 23:00:00,25/04/2020 23:30:00,47,Northward at Haywards,0.165,329,329
25/04/2020 23:30:00,26/04/2020 00:00:00,48,Northward at Haywards,0.124,247,247
26/04/2020 00:00:00,26/04/2020 00:30:00,1,Northward at Haywards,0.106,212,212
26/04/2020 00:30:00,26/04/2020 01:00:00,2,Northward at Haywards,0.097,193,193
26/04/2020 01:00:00,26/04/2020 01:30:00,3,Northward at Haywards,0.081,161,161
26/04/2020 01:30:00,26/04/2020 02:00:00,4,Northward at Haywards,0.053,106,106
26/04/2020 02:00:00,26/04/2020 02:30:00,5,Northward at Haywards,0.053,106,106
26/04/2020 02:30:00,26/04/2020 03:00:00,6,Northward at Haywards,0.058,115,115
26/04/2020 03:00:00,26/04/2020 03:30:00,7,Northward at Haywards,0.057,113,113
26/04/2020 03:30:00,26/04/2020 04:00:00,8,Northward at Haywards,0.060,119,119
26/04/2020 04:00:00,26/04/2020 04:30:00,9,Northward at Haywards,0.068,136,136
26/04/2020 04:30:00,26/04/2020 05:00:00,10,Northward at Haywards,0.043,86,86
26/04/2020 05:00:00,26/04/2020 05:30:00,11,Northward at Haywards,0.088,175,175
26/04/2020 05:30:00,26/04/2020 06:00:00,12,Northward at Haywards,0.098,195,195
26/04/2020 06:00:00,26/04/2020 06:30:00,13,Northward at Haywards,0.127,253,253
26/04/2020 06:30:00,26/04/2020 07:00:00,14,Northward at Haywards,0.143,286,286
26/04/2020 07:00:00,26/04/2020 07:30:00,15,Northward at Haywards,0.194,388,388
26/04/2020 07:30:00,26/04/2020 08:00:00,16,Northward at Haywards,0.219,437,437
26/04/2020 08:00:00,26/04/2020 08:30:00,17,Northward at Haywards,0.239,477,477
26/04/2020 08:30:00,26/04/2020 09:00:00,18,Northward at Haywards,0.262,524,524
26/04/2020 09:00:00,26/04/2020 09:30:00,19,Northward at Haywards,0.292,583,583
26/04/2020 09:30:00,26/04/2020 10:00:00,20,Northward at Haywards,0.331,661,661
26/04/2020 10:00:00,26/04/2020 10:30:00,21,Northward at Haywards,0.353,705,705
26/04/2020 10:30:00,26/04/2020 11:00:00,22,Northward at Haywards,0.343,685,685
26/04/2020 11:00:00,26/04/2020 11:30:00,23,Northward at Haywards,0.336,672,672
26/04/2020 11:30:00,26/04/2020 12:00:00,24,Northward at Haywards,0.297,593,593
26/04/2020 12:00:00,26/04/2020 12:30:00,25,Northward at Haywards,0.285,569,569
26/04/2020 12:30:00,26/04/2020 13:00:00,26,Northward at Haywards,0.271,541,541
26/04/2020 13:00:00,26/04/2020 13:30:00,27,Northward at Haywards,0.258,516,516
26/04/2020 13:30:00,26/04/2020 14:00:00,28,Northward at Haywards,0.239,477,477
26/04/2020 14:00:00,26/04/2020 14:30:00,29,Northward at Haywards,0.240,480,480
26/04/2020 14:30:00,26/04/2020 15:00:00,30,Northward at Haywards,0.238,476,476
26/04/2020 15:00:00,26/04/2020 15:30:00,31,Northward at Haywards,0.238,475,475
26/04/2020 15:30:00,26/04/2020 16:00:00,32,Northward at Haywards,0.234,468,468
26/04/2020 16:00:00,26/04/2020 16:30:00,33,Northward at Haywards,0.252,503,503
26/04/2020 16:30:00,26/04/2020 17:00:00,34,Northward at Haywards,0.263,526,526
26/04/2020 17:00:00,26/04/2020 17:30:00,35,Northward at Haywards,0.265,529,529
26/04/2020 17:30:00,26/04/2020 18:00:00,36,Northward at Haywards,0.341,682,682
26/04/2020 18:00:00,26/04/2020 18:30:00,37,Northward at Haywards,0.375,749,749
26/04/2020 18:30:00,26/04/2020 19:00:00,38,Northward at Haywards,0.364,728,728
26/04/2020 19:00:00,26/04/2020 19:30:00,39,Northward at Haywards,0.329,657,657
26/04/2020 19:30:00,26/04/2020 20:00:00,40,Northward at Haywards,0.269,538,538
26/04/2020 20:00:00,26/04/2020 20:30:00,41,Northward at Haywards,0.246,491,491
26/04/2020 20:30:00,26/04/2020 21:00:00,42,Northward at Haywards,0.203,405,405
26/04/2020 21:00:00,26/04/2020 21:30:00,43,Northward at Haywards,0.211,421,421
26/04/2020 21:30:00,26/04/2020 22:00:00,44,Northward at Haywards,0.188,376,376
26/04/2020 22:00:00,26/04/2020 22:30:00,45,Northward at Haywards,0.113,226,226
26/04/2020 22:30:00,26/04/2020 23:00:00,46,Northward at Haywards,0.100,199,199
26/04/2020 23:00:00,26/04/2020 23:30:00,47,Northward at Haywards,0.016,32,32
26/04/2020 23:30:00,27/04/2020 00:00:00,48,Northward at Haywards,0.005,9,9
27/04/2020 00:00:00,27/04/2020 00:30:00,1,Southward at Benmore,-0.022,-45,-45
27/04/2020 00:30:00,27/04/2020 01:00:00,2,Southward at Benmore,-0.037,-75,-75
27/04/2020 01:00:00,27/04/2020 01:30:00,3,Southward at Benmore,-0.042,-84,-84
27/04/2020 01:30:00,27/04/2020 02:00:00,4,Southward at Benmore,-0.073,-146,-146
27/04/2020 02:00:00,27/04/2020 02:30:00,5,Southward at Benmore,-0.081,-162,-162
27/04/2020 02:30:00,27/04/2020 03:00:00,6,Southward at Benmore,-0.075,-150,-150
27/04/2020 03:00:00,27/04/2020 03:30:00,7,Southward at Benmore,-0.069,-139,-139
27/04/2020 03:30:00,27/04/2020 04:00:00,8,Southward at Benmore,-0.075,-150,-150
27/04/2020 04:00:00,27/04/2020 04:30:00,9,Southward at Benmore,-0.068,-136,-136
27/04/2020 04:30:00,27/04/2020 05:00:00,10,Southward at Benmore,-0.061,-123,-123
27/04/2020 05:00:00,27/04/2020 05:30:00,11,Southward at Benmore,-0.039,-78,-78
27/04/2020 05:30:00,27/04/2020 06:00:00,12,Southward at Benmore,-0.028,-57,-57
27/04/2020 06:00:00,27/04/2020 06:30:00,13,Northward at Haywards,0.001,2,2
27/04/2020 06:30:00,27/04/2020 07:00:00,14,Northward at Haywards,0.032,64,64
27/04/2020 07:00:00,27/04/2020 07:30:00,15,Northward at Haywards,0.063,125,125
27/04/2020 07:30:00,27/04/2020 08:00:00,16,Northward at Haywards,0.092,184,184
27/04/2020 08:00:00,27/04/2020 08:30:00,17,Northward at Haywards,0.150,300,300
27/04/2020 08:30:00,27/04/2020 09:00:00,18,Northward at Haywards,0.176,351,351
27/04/2020 09:00:00,27/04/2020 09:30:00,19,Northward at Haywards,0.209,417,417
27/04/2020 09:30:00,27/04/2020 10:00:00,20,Northward at Haywards,0.221,442,442
27/04/2020 10:00:00,27/04/2020 10:30:00,21,Northward at Haywards,0.220,440,440
27/04/2020 10:30:00,27/04/2020 11:00:00,22,Northward at Haywards,0.220,439,439
27/04/2020 11:00:00,27/04/2020 11:30:00,23,Northward at Haywards,0.238,475,475
27/04/2020 11:30:00,27/04/2020 12:00:00,24,Northward at Haywards,0.222,444,444
27/04/2020 12:00:00,27/04/2020 12:30:00,25,Northward at Haywards,0.208,415,415
27/04/2020 12:30:00,27/04/2020 13:00:00,26,Northward at Haywards,0.210,419,419
27/04/2020 13:00:00,27/04/2020 13:30:00,27,Northward at Haywards,0.193,385,385
27/04/2020 13:30:00,27/04/2020 14:00:00,28,Northward at Haywards,0.178,355,355
27/04/2020 14:00:00,27/04/2020 14:30:00,29,Northward at Haywards,0.208,415,415
27/04/2020 14:30:00,27/04/2020 15:00:00,30,Northward at Haywards,0.183,366,366
27/04/2020 15:00:00,27/04/2020 15:30:00,31,Northward at Haywards,0.190,380,380
27/04/2020 15:30:00,27/04/2020 16:00:00,32,Northward at Haywards,0.195,389,389
27/04/2020 16:00:00,27/04/2020 16:30:00,33,Northward at Haywards,0.224,447,447
27/04/2020 16:30:00,27/04/2020 17:00:00,34,Northward at Haywards,0.258,516,516
27/04/2020 17:00:00,27/04/2020 17:30:00,35,Northward at Haywards,0.296,592,592
27/04/2020 17:30:00,27/04/2020 18:00:00,36,Northward at Haywards,0.349,697,697
27/04/2020 18:00:00,27/04/2020 18:30:00,37,Northward at Haywards,0.336,672,672
27/04/2020 18:30:00,27/04/2020 19:00:00,38,Northward at Haywards,0.315,630,630
27/04/2020 19:00:00,27/04/2020 19:30:00,39,Northward at Haywards,0.310,619,619
27/04/2020 19:30:00,27/04/2020 20:00:00,40,Northward at Haywards,0.213,426,426
27/04/2020 20:00:00,27/04/2020 20:30:00,41,Northward at Haywards,0.199,398,398
27/04/2020 20:30:00,27/04/2020 21:00:00,42,Northward at Haywards,0.180,359,359
27/04/2020 21:00:00,27/04/2020 21:30:00,43,Northward at Haywards,0.155,309,309
27/04/2020 21:30:00,27/04/2020 22:00:00,44,Northward at Haywards,0.150,299,299
27/04/2020 22:00:00,27/04/2020 22:30:00,45,Northward at Haywards,0.104,208,208
27/04/2020 22:30:00,27/04/2020 23:00:00,46,Northward at Haywards,0.090,180,180
27/04/2020 23:00:00,27/04/2020 23:30:00,47,Northward at Haywards,0.020,40,40
27/04/2020 23:30:00,28/04/2020 00:00:00,48,Northward at Haywards,0.011,21,21
28/04/2020 00:00:00,28/04/2020 00:30:00,1,Northward at Haywards,0.003,6,6
28/04/2020 00:30:00,28/04/2020 01:00:00,2,Southward at Benmore,-0.010,-21,-21
28/04/2020 01:00:00,28/04/2020 01:30:00,3,Southward at Benmore,-0.004,-8,-8
28/04/2020 01:30:00,28/04/2020 02:00:00,4,Southward at Benmore,-0.020,-41,-41
28/04/2020 02:00:00,28/04/2020 02:30:00,5,Southward at Benmore,-0.018,-37,-37
28/04/2020 02:30:00,28/04/2020 03:00:00,6,Northward at Haywards,0.001,2,2
28/04/2020 03:00:00,28/04/2020 03:30:00,7,Southward at Benmore,-0.012,-24,-24
28/04/2020 03:30:00,28/04/2020 04:00:00,8,Southward at Benmore,-0.027,-54,-54
28/04/2020 04:00:00,28/04/2020 04:30:00,9,Southward at Benmore,-0.018,-37,-37
28/04/2020 04:30:00,28/04/2020 05:00:00,10,Northward at Haywards,0.002,3,3
28/04/2020 05:00:00,28/04/2020 05:30:00,11,Northward at Haywards,0.041,82,82
28/04/2020 05:30:00,28/04/2020 06:00:00,12,Northward at Haywards,0.076,151,151
28/04/2020 06:00:00,28/04/2020 06:30:00,13,Northward at Haywards,0.106,211,211
28/04/2020 06:30:00,28/04/2020 07:00:00,14,Northward at Haywards,0.160,319,319
28/04/2020 07:00:00,28/04/2020 07:30:00,15,Northward at Haywards,0.200,399,399
28/04/2020 07:30:00,28/04/2020 08:00:00,16,Northward at Haywards,0.226,451,451
28/04/2020 08:00:00,28/04/2020 08:30:00,17,Northward at Haywards,0.269,537,537
28/04/2020 08:30:00,28/04/2020 09:00:00,18,Northward at Haywards,0.277,553,553
28/04/2020 09:00:00,28/04/2020 09:30:00,19,Northward at Haywards,0.289,577,577
28/04/2020 09:30:00,28/04/2020 10:00:00,20,Northward at Haywards,0.287,573,573
28/04/2020 10:00:00,28/04/2020 10:30:00,21,Northward at Haywards,0.298,596,596
28/04/2020 10:30:00,28/04/2020 11:00:00,22,Northward at Haywards,0.310,619,619
28/04/2020 11:00:00,28/04/2020 11:30:00,23,Northward at Haywards,0.326,652,652
28/04/2020 11:30:00,28/04/2020 12:00:00,24,Northward at Haywards,0.323,646,646
28/04/2020 12:00:00,28/04/2020 12:30:00,25,Northward at Haywards,0.339,677,677
28/04/2020 12:30:00,28/04/2020 13:00:00,26,Northward at Haywards,0.350,699,699
28/04/2020 13:00:00,28/04/2020 13:30:00,27,Northward at Haywards,0.330,659,659
28/04/2020 13:30:00,28/04/2020 14:00:00,28,Northward at Haywards,0.318,636,636
28/04/2020 14:00:00,28/04/2020 14:30:00,29,Northward at Haywards,0.316,632,632
28/04/2020 14:30:00,28/04/2020 15:00:00,30,Northward at Haywards,0.300,600,600
28/04/2020 15:00:00,28/04/2020 15:30:00,31,Northward at Haywards,0.312,624,624
28/04/2020 15:30:00,28/04/2020 16:00:00,32,Northward at Haywards,0.310,619,619
28/04/2020 16:00:00,28/04/2020 16:30:00,33,Northward at Haywards,0.333,666,666
28/04/2020 16:30:00,28/04/2020 17:00:00,34,Northward at Haywards,0.338,675,675
28/04/2020 17:00:00,28/04/2020 17:30:00,35,Northward at Haywards,0.354,708,708
28/04/2020 17:30:00,28/04/2020 18:00:00,36,Northward at Haywards,0.370,740,740
28/04/2020 18:00:00,28/04/2020 18:30:00,37,Northward at Haywards,0.361,722,722
28/04/2020 18:30:00,28/04/2020 19:00:00,38,Northward at Haywards,0.367,734,734
28/04/2020 19:00:00,28/04/2020 19:30:00,39,Northward at Haywards,0.363,726,726
28/04/2020 19:30:00,28/04/2020 20:00:00,40,Northward at Haywards,0.344,688,688
28/04/2020 20:00:00,28/04/2020 20:30:00,41,Northward at Haywards,0.339,678,678
28/04/2020 20:30:00,28/04/2020 21:00:00,42,Northward at Haywards,0.327,653,653
28/04/2020 21:00:00,28/04/2020 21:30:00,43,Northward at Haywards,0.335,669,669
28/04/2020 21:30:00,28/04/2020 22:00:00,44,Northward at Haywards,0.345,689,689
28/04/2020 22:00:00,28/04/2020 22:30:00,45,Northward at Haywards,0.287,574,574
28/04/2020 22:30:00,28/04/2020 23:00:00,46,Northward at Haywards,0.242,483,483
28/04/2020 23:00:00,28/04/2020 23:30:00,47,Northward at Haywards,0.193,385,385
28/04/2020 23:30:00,29/04/2020 00:00:00,48,Northward at Haywards,0.164,327,327
29/04/2020 00:00:00,29/04/2020 00:30:00,1,Northward at Haywards,0.140,280,280
29/04/2020 00:30:00,29/04/2020 01:00:00,2,Northward at Haywards,0.132,264,264
29/04/2020 01:00:00,29/04/2020 01:30:00,3,Northward at Haywards,0.117,234,234
29/04/2020 01:30:00,29/04/2020 02:00:00,4,Northward at Haywards,0.120,239,239
29/04/2020 02:00:00,29/04/2020 02:30:00,5,Northward at Haywards,0.135,269,269
29/04/2020 02:30:00,29/04/2020 03:00:00,6,Northward at Haywards,0.126,251,251
29/04/2020 03:00:00,29/04/2020 03:30:00,7,Northward at Haywards,0.118,235,235
29/04/2020 03:30:00,29/04/2020 04:00:00,8,Northward at Haywards,0.127,253,253
29/04/2020 04:00:00,29/04/2020 04:30:00,9,Northward at Haywards,0.133,266,266
29/04/2020 04:30:00,29/04/2020 05:00:00,10,Northward at Haywards,0.133,266,266
29/04/2020 05:00:00,29/04/2020 05:30:00,11,Northward at Haywards,0.151,302,302
29/04/2020 05:30:00,29/04/2020 06:00:00,12,Northward at Haywards,0.162,323,323
29/04/2020 06:00:00,29/04/2020 06:30:00,13,Northward at Haywards,0.194,388,388
29/04/2020 06:30:00,29/04/2020 07:00:00,14,Northward at Haywards,0.263,525,525
29/04/2020 07:00:00,29/04/2020 07:30:00,15,Northward at Haywards,0.366,732,732
29/04/2020 07:30:00,29/04/2020 08:00:00,16,Northward at Haywards,0.374,747,747
29/04/2020 08:00:00,29/04/2020 08:30:00,17,Northward at Haywards,0.377,753,753
29/04/2020 08:30:00,29/04/2020 09:00:00,18,Northward at Haywards,0.370,740,740
29/04/2020 09:00:00,29/04/2020 09:30:00,19,Northward at Haywards,0.370,739,739
29/04/2020 09:30:00,29/04/2020 10:00:00,20,Northward at Haywards,0.355,709,709
29/04/2020 10:00:00,29/04/2020 10:30:00,21,Northward at Haywards,0.355,709,709
29/04/2020 10:30:00,29/04/2020 11:00:00,22,Northward at Haywards,0.345,689,689
29/04/2020 11:00:00,29/04/2020 11:30:00,23,Northward at Haywards,0.360,720,720
29/04/2020 11:30:00,29/04/2020 12:00:00,24,Northward at Haywards,0.358,715,715
29/04/2020 12:00:00,29/04/2020 12:30:00,25,Northward at Haywards,0.335,669,669
29/04/2020 12:30:00,29/04/2020 13:00:00,26,Northward at Haywards,0.325,649,649
29/04/2020 13:00:00,29/04/2020 13:30:00,27,Northward at Haywards,0.294,587,587
29/04/2020 13:30:00,29/04/2020 14:00:00,28,Northward at Haywards,0.283,566,566
29/04/2020 14:00:00,29/04/2020 14:30:00,29,Northward at Haywards,0.298,596,596
29/04/2020 14:30:00,29/04/2020 15:00:00,30,Northward at Haywards,0.283,565,565
29/04/2020 15:00:00,29/04/2020 15:30:00,31,Northward at Haywards,0.280,560,560
29/04/2020 15:30:00,29/04/2020 16:00:00,32,Northward at Haywards,0.278,555,555
29/04/2020 16:00:00,29/04/2020 16:30:00,33,Northward at Haywards,0.272,544,544
29/04/2020 16:30:00,29/04/2020 17:00:00,34,Northward at Haywards,0.330,660,660
29/04/2020 17:00:00,29/04/2020 17:30:00,35,Northward at Haywards,0.303,606,606
29/04/2020 17:30:00,29/04/2020 18:00:00,36,Northward at Haywards,0.348,696,696
29/04/2020 18:00:00,29/04/2020 18:30:00,37,Northward at Haywards,0.328,656,656
29/04/2020 18:30:00,29/04/2020 19:00:00,38,Northward at Haywards,0.335,670,670
29/04/2020 19:00:00,29/04/2020 19:30:00,39,Northward at Haywards,0.339,677,677
29/04/2020 19:30:00,29/04/2020 20:00:00,40,Northward at Haywards,0.322,643,643
29/04/2020 20:00:00,29/04/2020 20:30:00,41,Northward at Haywards,0.325,650,650
29/04/2020 20:30:00,29/04/2020 21:00:00,42,Northward at Haywards,0.302,604,604
29/04/2020 21:00:00,29/04/2020 21:30:00,43,Northward at Haywards,0.274,547,547
29/04/2020 21:30:00,29/04/2020 22:00:00,44,Northward at Haywards,0.243,486,486
29/04/2020 22:00:00,29/04/2020 22:30:00,45,Northward at Haywards,0.206,411,411
29/04/2020 22:30:00,29/04/2020 23:00:00,46,Northward at Haywards,0.158,316,316
29/04/2020 23:00:00,29/04/2020 23:30:00,47,Northward at Haywards,0.107,213,213
29/04/2020 23:30:00,30/04/2020 00:00:00,48,Northward at Haywards,0.076,152,152
30/04/2020 00:00:00,30/04/2020 00:30:00,1,Northward at Haywards,0.065,129,129
30/04/2020 00:30:00,30/04/2020 01:00:00,2,Northward at Haywards,0.041,82,82
30/04/2020 01:00:00,30/04/2020 01:30:00,3,Northward at Haywards,0.025,50,50
30/04/2020 01:30:00,30/04/2020 02:00:00,4,Southward at Benmore,-0.008,-16,-16
30/04/2020 02:00:00,30/04/2020 02:30:00,5,Northward at Haywards,0.012,24,24
30/04/2020 02:30:00,30/04/2020 03:00:00,6,Southward at Benmore,-0.001,-2,-2
30/04/2020 03:00:00,30/04/2020 03:30:00,7,Southward at Benmore,-0.013,-26,-26
30/04/2020 03:30:00,30/04/2020 04:00:00,8,Southward at Benmore,-0.022,-44,-44
30/04/2020 04:00:00,30/04/2020 04:30:00,9,Southward at Benmore,-0.024,-49,-49
30/04/2020 04:30:00,30/04/2020 05:00:00,10,Southward at Benmore,-0.015,-31,-31
30/04/2020 05:00:00,30/04/2020 05:30:00,11,Northward at Haywards,0.025,49,49
30/04/2020 05:30:00,30/04/2020 06:00:00,12,Northward at Haywards,0.034,67,67
30/04/2020 06:00:00,30/04/2020 06:30:00,13,Northward at Haywards,0.086,172,172
30/04/2020 06:30:00,30/04/2020 07:00:00,14,Northward at Haywards,0.108,215,215
30/04/2020 07:00:00,30/04/2020 07:30:00,15,Northward at Haywards,0.199,397,397
30/04/2020 07:30:00,30/04/2020 08:00:00,16,Northward at Haywards,0.220,439,439
30/04/2020 08:00:00,30/04/2020 08:30:00,17,Northward at Haywards,0.266,532,532
30/04/2020 08:30:00,30/04/2020 09:00:00,18,Northward at Haywards,0.259,517,517
30/04/2020 09:00:00,30/04/2020 09:30:00,19,Northward at Haywards,0.277,553,553
30/04/2020 09:30:00,30/04/2020 10:00:00,20,Northward at Haywards,0.267,533,533
30/04/2020 10:00:00,30/04/2020 10:30:00,21,Northward at Haywards,0.245,490,490
30/04/2020 10:30:00,30/04/2020 11:00:00,22,Northward at Haywards,0.241,482,482
30/04/2020 11:00:00,30/04/2020 11:30:00,23,Northward at Haywards,0.258,516,516
30/04/2020 11:30:00,30/04/2020 12:00:00,24,Northward at Haywards,0.263,525,525
30/04/2020 12:00:00,30/04/2020 12:30:00,25,Northward at Haywards,0.267,533,533
30/04/2020 12:30:00,30/04/2020 13:00:00,26,Northward at Haywards,0.244,487,487
30/04/2020 13:00:00,30/04/2020 13:30:00,27,Northward at Haywards,0.254,507,507
30/04/2020 13:30:00,30/04/2020 14:00:00,28,Northward at Haywards,0.260,520,520
30/04/2020 14:00:00,30/04/2020 14:30:00,29,Northward at Haywards,0.258,515,515
30/04/2020 14:30:00,30/04/2020 15:00:00,30,Northward at Haywards,0.235,470,470
30/04/2020 15:00:00,30/04/2020 15:30:00,31,Northward at Haywards,0.238,475,475
30/04/2020 15:30:00,30/04/2020 16:00:00,32,Northward at Haywards,0.236,472,472
30/04/2020 16:00:00,30/04/2020 16:30:00,33,Northward at Haywards,0.247,493,493
30/04/2020 16:30:00,30/04/2020 17:00:00,34,Northward at Haywards,0.262,524,524
30/04/2020 17:00:00,30/04/2020 17:30:00,35,Northward at Haywards,0.292,583,583
30/04/2020 17:30:00,30/04/2020 18:00:00,36,Northward at Haywards,0.336,671,671
30/04/2020 18:00:00,30/04/2020 18:30:00,37,Northward at Haywards,0.329,658,658
30/04/2020 18:30:00,30/04/2020 19:00:00,38,Northward at Haywards,0.338,676,676
30/04/2020 19:00:00,30/04/2020 19:30:00,39,Northward at Haywards,0.321,642,642
30/04/2020 19:30:00,30/04/2020 20:00:00,40,Northward at Haywards,0.283,566,566
30/04/2020 20:00:00,30/04/2020 20:30:00,41,Northward at Haywards,0.259,517,517
30/04/2020 20:30:00,30/04/2020 21:00:00,42,Northward at Haywards,0.224,447,447
30/04/2020 21:00:00,30/04/2020 21:30:00,43,Northward at Haywards,0.208,416,416
30/04/2020 21:30:00,30/04/2020 22:00:00,44,Northward at Haywards,0.184,367,367
30/04/2020 22:00:00,30/04/2020 22:30:00,45,Northward at Haywards,0.131,262,262
30/04/2020 22:30:00,30/04/2020 23:00:00,46,Northward at Haywards,0.094,188,188
30/04/2020 23:00:00,30/04/2020 23:30:00,47,Northward at Haywards,0.047,93,93
30/04/2020 23:30:00,01/05/2020 00:00:00,48,Northward at Haywards,0.004,8,8
01/05/2020 00:00:00,01/05/2020 00:30:00,1,Northward at Haywards,0.009,18,18
01/05/2020 00:30:00,01/05/2020 01:00:00,2,Southward at Benmore,-0.001,-3,-3
01/05/2020 01:00:00,01/05/2020 01:30:00,3,Southward at Benmore,-0.010,-20,-20
01/05/2020 01:30:00,01/05/2020 02:00:00,4,Southward at Benmore,-0.002,-4,-4
01/05/2020 02:00:00,01/05/2020 02:30:00,5,Southward at Benmore,-0.029,-59,-59
01/05/2020 02:30:00,01/05/2020 03:00:00,6,Southward at Benmore,-0.018,-36,-36
01/05/2020 03:00:00,01/05/2020 03:30:00,7,Southward at Benmore,-0.023,-46,-46
01/05/2020 03:30:00,01/05/2020 04:00:00,8,Southward at Benmore,-0.038,-76,-76
01/05/2020 04:00:00,01/05/2020 04:30:00,9,Southward at Benmore,-0.021,-42,-42